| time (UTC) | temp F | wind direction | speed knots | gust knots | rain 1hr in | rain 24hr in | rain mn in | humidity % | barometer mb |
| 20260507000507 | 58 | 112 | 0.9 | 1.7 | 0.01 | 0.12 | 0.12 | 90 | 1005.9 |
| 20260507000023 | 58 | 169 | 0.9 | 3.5 | 0.01 | 0.12 | 0.12 | 90 | 1005.9 |
| 20260506235507 | 58 | 134 | 0.9 | 3.5 | 0.01 | 0.12 | 0.12 | 90 | 1005.8 |
| 20260506235010 | 58 | 190 | 0.9 | 3.5 | 0.02 | 0.12 | 0.12 | 90 | 1005.8 |
| 20260506234507 | 58 | 292 | 0.0 | 5.2 | 0.02 | 0.11 | 0.11 | 90 | 1005.8 |
| 20260506234003 | 58 | 145 | 0.9 | 6.1 | 0.03 | 0.11 | 0.11 | 90 | 1005.7 |
| 20260506233502 | 58 | 171 | 0.0 | 6.1 | 0.03 | 0.11 | 0.11 | 90 | 1005.8 |
| 20260506233011 | 58 | 88 | 0.9 | 4.3 | 0.04 | 0.11 | 0.11 | 90 | 1005.7 |
| 20260506232510 | 58 | 155 | 0.9 | 4.3 | 0.04 | 0.11 | 0.11 | 90 | 1005.7 |
| 20260506232008 | 58 | 234 | 0.0 | 1.7 | 0.04 | 0.11 | 0.11 | 90 | 1005.7 |
| 20260506231517 | 58 | 169 | 0.0 | 3.5 | 0.04 | 0.11 | 0.11 | 90 | 1005.6 |
| 20260506231009 | 58 | 193 | 0.9 | 3.5 | 0.04 | 0.11 | 0.11 | 90 | 1005.6 |
| 20260506230507 | 58 | 89 | 0.0 | 2.6 | 0.04 | 0.11 | 0.11 | 90 | 1005.6 |
| 20260506230019 | 58 | 144 | 0.9 | 1.7 | 0.04 | 0.11 | 0.11 | 90 | 1005.6 |
| 20260506225507 | 58 | 127 | 0.0 | 3.5 | 0.04 | 0.11 | 0.11 | 90 | 1005.7 |
| 20260506225008 | 58 | 184 | 0.9 | 3.5 | 0.03 | 0.10 | 0.10 | 90 | 1005.7 |
| 20260506224525 | 58 | 139 | 0.9 | 3.5 | 0.02 | 0.09 | 0.09 | 89 | 1005.8 |
| 20260506224007 | 58 | 191 | 0.9 | 3.5 | 0.02 | 0.08 | 0.08 | 89 | 1005.7 |
| 20260506223504 | 58 | 301 | 0.0 | 2.6 | 0.02 | 0.08 | 0.08 | 89 | 1005.8 |
| 20260506223006 | 58 | 225 | 0.0 | 2.6 | 0.01 | 0.07 | 0.07 | 89 | 1005.8 |
| 20260506222504 | 58 | 99 | 0.0 | 3.5 | 0.01 | 0.07 | 0.07 | 89 | 1005.9 |
| 20260506222005 | 58 | 278 | 1.7 | 7.0 | 0.01 | 0.07 | 0.07 | 89 | 1005.9 |
| 20260506221514 | 58 | 107 | 0.9 | 7.0 | 0.01 | 0.07 | 0.07 | 89 | 1005.9 |
| 20260506221007 | 58 | 202 | 0.0 | 3.5 | 0.01 | 0.07 | 0.07 | 89 | 1006.0 |
| 20260506220503 | 59 | 360 | 0.0 | 2.6 | 0.01 | 0.07 | 0.07 | 89 | 1006.1 |
| 20260506220002 | 59 | 321 | 0.9 | 2.6 | 0.01 | 0.07 | 0.07 | 89 | 1006.2 |
| 20260506215502 | 59 | 320 | 0.9 | 1.7 | 0.01 | 0.07 | 0.07 | 89 | 1006.2 |
| 20260506215002 | 59 | 140 | 0.0 | 4.3 | 0.01 | 0.07 | 0.07 | 88 | 1006.2 |
| 20260506214503 | 59 | 173 | 1.7 | 4.3 | 0.01 | 0.07 | 0.07 | 88 | 1006.2 |
| 20260506214002 | 59 | 159 | 0.9 | 2.6 | 0.00 | 0.06 | 0.06 | 88 | 1006.2 |
| 20260506213503 | 59 | 155 | 0.9 | 3.5 | 0.00 | 0.06 | 0.06 | 88 | 1006.3 |
| 20260506213003 | 59 | 53 | 0.9 | 4.3 | 0.00 | 0.06 | 0.06 | 88 | 1006.4 |
| 20260506211003 | 59 | 273 | 1.7 | 5.2 | 0.01 | 0.06 | 0.06 | 88 | 1006.5 |
| 20260506210505 | 59 | 217 | 0.9 | 3.5 | 0.01 | 0.06 | 0.06 | 88 | 1006.6 |
| 20260506210002 | 59 | 223 | 0.0 | 3.5 | 0.01 | 0.06 | 0.06 | 87 | 1006.6 |
| 20260506205503 | 59 | 301 | 0.9 | 3.5 | 0.01 | 0.06 | 0.06 | 87 | 1006.6 |
| 20260506205003 | 59 | 190 | 0.9 | 6.1 | 0.01 | 0.06 | 0.06 | 87 | 1006.8 |
| 20260506204504 | 59 | 154 | 0.9 | 6.1 | 0.01 | 0.06 | 0.06 | 87 | 1006.9 |
| 20260506204003 | 59 | 200 | 1.7 | 4.3 | 0.01 | 0.06 | 0.06 | 87 | 1006.9 |
| 20260506203502 | 59 | 250 | 0.9 | 6.1 | 0.01 | 0.06 | 0.06 | 87 | 1006.9 |
| 20260506203010 | 59 | 193 | 1.7 | 6.1 | 0.01 | 0.06 | 0.06 | 87 | 1006.9 |
| 20260506202503 | 59 | 36 | 0.9 | 7.8 | 0.01 | 0.06 | 0.06 | 87 | 1006.8 |
| 20260506202003 | 59 | 290 | 1.7 | 7.8 | 0.02 | 0.06 | 0.06 | 87 | 1006.8 |
| 20260506200008 | 59 | 236 | 1.7 | 8.7 | 0.03 | 0.05 | 0.05 | 86 | 1007.0 |
| 20260506195502 | 60 | 289 | 1.7 | 8.7 | 0.03 | 0.05 | 0.05 | 87 | 1006.9 |
| 20260506195002 | 60 | 183 | 1.7 | 5.2 | 0.03 | 0.05 | 0.05 | 86 | 1007.0 |
| 20260506194503 | 60 | 286 | 2.6 | 4.3 | 0.04 | 0.05 | 0.05 | 86 | 1007.0 |
| 20260506194004 | 60 | 172 | 1.7 | 5.2 | 0.04 | 0.05 | 0.05 | 86 | 1007.0 |
| 20260506193502 | 60 | 236 | 0.9 | 8.7 | 0.04 | 0.05 | 0.05 | 85 | 1007.0 |
| 20260506193004 | 60 | 175 | 1.7 | 8.7 | 0.05 | 0.05 | 0.05 | 85 | 1007.0 |
| 20260506192502 | 60 | 180 | 1.7 | 7.0 | 0.05 | 0.05 | 0.05 | 85 | 1007.0 |
| 20260506192002 | 60 | 224 | 0.9 | 7.0 | 0.04 | 0.04 | 0.04 | 85 | 1007.1 |
| 20260506191503 | 61 | 244 | 1.7 | 7.0 | 0.04 | 0.04 | 0.04 | 84 | 1007.1 |
| 20260506191004 | 61 | 317 | 2.6 | 7.0 | 0.03 | 0.03 | 0.03 | 84 | 1007.0 |
| 20260506190505 | 61 | 130 | 0.9 | 6.1 | 0.03 | 0.03 | 0.03 | 83 | 1006.9 |
| 20260506190004 | 62 | 205 | 0.0 | 2.6 | 0.02 | 0.02 | 0.02 | 83 | 1007.0 |
| 20260506185503 | 62 | 150 | 0.9 | 2.6 | 0.02 | 0.02 | 0.02 | 82 | 1007.0 |
| 20260506185004 | 62 | 224 | 0.9 | 2.6 | 0.02 | 0.02 | 0.02 | 81 | 1007.0 |
| 20260506184515 | 63 | 261 | 0.9 | 3.5 | 0.01 | 0.01 | 0.01 | 80 | 1007.1 |
| 20260506184002 | 63 | 291 | 0.9 | 10.4 | 0.01 | 0.01 | 0.01 | 78 | 1007.2 |
| 20260506183506 | 64 | 198 | 3.5 | 10.4 | 0.01 | 0.01 | 0.01 | 76 | 1007.3 |
| 20260506183004 | 64 | 248 | 1.7 | 7.0 | 0.00 | 0.00 | 0.00 | 76 | 1007.3 |
| 20260506182503 | 65 | 75 | 1.7 | 7.0 | 0.00 | 0.00 | 0.00 | 74 | 1007.5 |
| 20260506182003 | 65 | 295 | 0.9 | 4.3 | 0.00 | 0.00 | 0.00 | 74 | 1007.6 |
| 20260506181503 | 66 | 219 | 0.9 | 4.3 | 0.00 | 0.00 | 0.00 | 73 | 1007.5 |
| 20260506181004 | 67 | 278 | 0.9 | 7.0 | 0.00 | 0.00 | 0.00 | 71 | 1007.4 |
| 20260506180503 | 67 | 270 | 1.7 | 7.0 | 0.00 | 0.00 | 0.00 | 69 | 1007.4 |
| 20260506180006 | 67 | 326 | 1.7 | 9.6 | 0.00 | 0.00 | 0.00 | 67 | 1007.5 |
| 20260506175504 | 68 | 265 | 3.5 | 9.6 | 0.00 | 0.00 | 0.00 | 65 | 1007.5 |
| 20260506175002 | 68 | 219 | 3.5 | 8.7 | 0.00 | 0.00 | 0.00 | 63 | 1007.5 |
| 20260506174505 | 69 | 265 | 2.6 | 9.6 | 0.00 | 0.00 | 0.00 | 63 | 1007.5 |
| 20260506174002 | 70 | 211 | 3.5 | 9.6 | 0.00 | 0.00 | 0.00 | 59 | 1007.4 |
| 20260506173504 | 71 | 236 | 3.5 | 9.6 | 0.00 | 0.00 | 0.00 | 58 | 1007.3 |
| 20260506173004 | 71 | 238 | 2.6 | 7.0 | 0.00 | 0.00 | 0.00 | 57 | 1007.4 |
| 20260506172503 | 72 | 61 | 1.7 | 12.2 | 0.00 | 0.00 | 0.00 | 56 | 1007.3 |
| 20260506172003 | 72 | 183 | 0.9 | 12.2 | 0.00 | 0.00 | 0.00 | 55 | 1007.3 |
| 20260506171503 | 72 | 260 | 2.6 | 7.0 | 0.00 | 0.00 | 0.00 | 55 | 1007.3 |
| 20260506171003 | 72 | 258 | 0.9 | 8.7 | 0.00 | 0.00 | 0.00 | 55 | 1007.3 |
| 20260506170502 | 72 | 338 | 2.6 | 10.4 | 0.00 | 0.00 | 0.00 | 55 | 1007.4 |
| 20260506170009 | 73 | 109 | 1.7 | 10.4 | 0.00 | 0.00 | 0.00 | 56 | 1007.4 |
| 20260506165503 | 73 | 143 | 2.6 | 8.7 | 0.00 | 0.00 | 0.00 | 54 | 1007.3 |
| 20260506165005 | 73 | 190 | 4.3 | 9.6 | 0.00 | 0.00 | 0.00 | 54 | 1007.5 |
| 20260506164504 | 72 | 351 | 1.7 | 12.2 | 0.00 | 0.00 | 0.00 | 56 | 1007.5 |
| 20260506164002 | 72 | 360 | 2.6 | 12.2 | 0.00 | 0.00 | 0.00 | 56 | 1007.6 |
| 20260506162507 | 71 | 119 | 3.5 | 11.3 | 0.00 | 0.00 | 0.00 | 57 | 1007.9 |
| 20260506162006 | 71 | 134 | 2.6 | 10.4 | 0.00 | 0.00 | 0.00 | 57 | 1007.9 |
| 20260506161507 | 71 | 162 | 0.9 | 13.9 | 0.00 | 0.00 | 0.00 | 58 | 1008.1 |
| 20260506161007 | 71 | 104 | 1.7 | 13.9 | 0.00 | 0.00 | 0.00 | 58 | 1008.2 |
| 20260506160503 | 71 | 181 | 2.6 | 11.3 | 0.00 | 0.00 | 0.00 | 58 | 1008.1 |
| 20260506160007 | 71 | 51 | 1.7 | 7.0 | 0.00 | 0.00 | 0.00 | 60 | 1008.3 |
| 20260506155504 | 71 | 98 | 2.6 | 7.8 | 0.00 | 0.00 | 0.00 | 59 | 1008.2 |
| 20260506155003 | 70 | 302 | 2.6 | 7.8 | 0.00 | 0.00 | 0.00 | 59 | 1008.3 |
| 20260506154506 | 70 | 178 | 0.9 | 7.8 | 0.00 | 0.00 | 0.00 | 62 | 1008.5 |
| 20260506154003 | 69 | 153 | 1.7 | 7.8 | 0.00 | 0.00 | 0.00 | 61 | 1008.5 |
| 20260506153503 | 69 | 205 | 0.9 | 9.6 | 0.00 | 0.00 | 0.00 | 61 | 1008.5 |
| 20260506153009 | 69 | 24 | 1.7 | 9.6 | 0.00 | 0.00 | 0.00 | 61 | 1008.5 |
| 20260506152503 | 70 | 161 | 2.6 | 6.1 | 0.00 | 0.00 | 0.00 | 61 | 1008.7 |
| 20260506152004 | 70 | 157 | 2.6 | 7.0 | 0.00 | 0.00 | 0.00 | 60 | 1008.7 |
| 20260506151003 | 70 | 123 | 2.6 | 11.3 | 0.00 | 0.00 | 0.00 | 60 | 1009.0 |
| 20260506150505 | 70 | 296 | 2.6 | 8.7 | 0.00 | 0.00 | 0.00 | 61 | 1009.0 |
| 20260506150008 | 69 | 154 | 1.7 | 8.7 | 0.00 | 0.00 | 0.00 | 62 | 1009.1 |
| 20260506145504 | 70 | 171 | 3.5 | 8.7 | 0.00 | 0.00 | 0.00 | 63 | 1009.0 |
| 20260506145003 | 70 | 99 | 2.6 | 8.7 | 0.00 | 0.00 | 0.00 | 63 | 1009.1 |
| 20260506144524 | 69 | 167 | 2.6 | 5.2 | 0.00 | 0.00 | 0.00 | 63 | 1009.0 |
| 20260506144003 | 69 | 122 | 1.7 | 4.3 | 0.00 | 0.00 | 0.00 | 64 | 1009.1 |
| 20260506143504 | 69 | 211 | 0.0 | 4.3 | 0.00 | 0.00 | 0.00 | 65 | 1009.2 |
| 20260506143008 | 69 | 205 | 1.7 | 5.2 | 0.00 | 0.00 | 0.00 | 65 | 1009.0 |
| 20260506142505 | 69 | 209 | 2.6 | 5.2 | 0.00 | 0.00 | 0.00 | 66 | 1009.1 |
| 20260506142004 | 68 | 174 | 1.7 | 5.2 | 0.00 | 0.00 | 0.00 | 67 | 1009.1 |
| 20260506141511 | 67 | 206 | 1.7 | 6.1 | 0.00 | 0.00 | 0.00 | 68 | 1009.1 |
| 20260506140504 | 67 | 324 | 1.7 | 8.7 | 0.00 | 0.00 | 0.00 | 69 | 1009.0 |
| 20260506140010 | 67 | 178 | 2.6 | 8.7 | 0.00 | 0.00 | 0.00 | 68 | 1009.0 |
| 20260506135504 | 67 | 274 | 3.5 | 8.7 | 0.00 | 0.00 | 0.00 | 68 | 1009.0 |
| 20260506135003 | 66 | 97 | 1.7 | 6.1 | 0.00 | 0.00 | 0.00 | 69 | 1009.1 |
| 20260506134511 | 66 | 277 | 1.7 | 7.8 | 0.00 | 0.00 | 0.00 | 70 | 1009.3 |
| 20260506134003 | 65 | 100 | 0.9 | 7.8 | 0.00 | 0.00 | 0.00 | 70 | 1009.2 |
| 20260506133504 | 65 | 281 | 0.9 | 8.7 | 0.00 | 0.00 | 0.00 | 71 | 1009.4 |
| 20260506133009 | 65 | 111 | 1.7 | 8.7 | 0.00 | 0.00 | 0.00 | 71 | 1009.3 |
| 20260506132505 | 65 | 108 | 1.7 | 7.0 | 0.00 | 0.00 | 0.00 | 72 | 1009.4 |
| 20260506132005 | 65 | 165 | 1.7 | 7.0 | 0.00 | 0.00 | 0.00 | 72 | 1009.6 |
| 20260506131507 | 64 | 63 | 1.7 | 7.0 | 0.00 | 0.00 | 0.00 | 72 | 1009.7 |
| 20260506131004 | 64 | 202 | 3.5 | 7.0 | 0.00 | 0.00 | 0.00 | 1009.8 | |
| 20260506130507 | 64 | 186 | 1.7 | 8.7 | 0.00 | 0.00 | 0.00 | 1009.8 | |
| 20260506130010 | 63 | 56 | 1.7 | 8.7 | 0.00 | 0.00 | 0.00 | 74 | 1009.8 |
| 20260506125003 | 63 | 171 | 2.6 | 10.4 | 0.00 | 0.00 | 0.00 | 73 | 1009.7 |
| 20260506124504 | 64 | 36 | 0.9 | 7.8 | 0.00 | 0.00 | 0.00 | 73 | 1009.7 |
| 20260506124004 | 63 | 88 | 1.7 | 7.8 | 0.00 | 0.00 | 0.00 | 74 | 1009.7 |
| 20260506123504 | 63 | 182 | 1.7 | 8.7 | 0.00 | 0.00 | 0.00 | 74 | 1009.7 |
| 20260506123009 | 63 | 198 | 2.6 | 8.7 | 0.00 | 0.00 | 0.00 | 74 | 1009.7 |
| 20260506122505 | 63 | 286 | 2.6 | 7.8 | 0.00 | 0.00 | 0.00 | 75 | 1009.7 |
| 20260506122007 | 62 | 331 | 0.9 | 7.8 | 0.00 | 0.00 | 0.00 | 75 | 1009.8 |
| 20260506121510 | 62 | 180 | 1.7 | 4.3 | 0.00 | 0.00 | 0.00 | 75 | 1009.9 |
| 20260506121008 | 62 | 129 | 0.9 | 7.8 | 0.00 | 0.00 | 0.00 | 76 | 1009.8 |
| 20260506120507 | 61 | 155 | 1.7 | 7.8 | 0.00 | 0.00 | 0.00 | 76 | 1009.7 |
| 20260506120022 | 61 | 140 | 0.9 | 7.8 | 0.00 | 0.00 | 0.00 | 77 | 1009.6 |
| 20260506115509 | 61 | 239 | 2.6 | 7.8 | 0.00 | 0.00 | 0.00 | 77 | 1009.7 |
| 20260506114009 | 61 | 167 | 1.7 | 6.1 | 0.00 | 0.00 | 0.00 | 78 | 1009.9 |
| 20260506113504 | 60 | 72 | 1.7 | 6.1 | 0.00 | 0.00 | 0.00 | 79 | 1010.0 |
| 20260506113010 | 60 | 286 | 0.9 | 6.1 | 0.00 | 0.00 | 0.00 | 79 | 1010.0 |
| 20260506112505 | 60 | 202 | 0.9 | 6.1 | 0.00 | 0.00 | 0.00 | 79 | 1010.1 |
| 20260506112004 | 60 | 205 | 2.6 | 6.1 | 0.00 | 0.00 | 0.00 | 79 | 1010.2 |
| 20260506111508 | 59 | 231 | 1.7 | 6.1 | 0.00 | 0.00 | 0.00 | 79 | 1010.4 |
| 20260506111008 | 59 | 202 | 0.9 | 6.1 | 0.00 | 0.00 | 0.00 | 80 | 1010.3 |
| 20260506110509 | 59 | 55 | 0.9 | 4.3 | 0.00 | 0.00 | 0.00 | 80 | 1010.1 |
| 20260506110014 | 59 | 193 | 0.9 | 4.3 | 0.00 | 0.00 | 0.00 | 80 | 1010.0 |
| 20260506105507 | 59 | 109 | 0.9 | 1.7 | 0.00 | 0.00 | 0.00 | 80 | 1010.1 |
| 20260506105008 | 59 | 191 | 0.9 | 2.6 | 0.00 | 0.00 | 0.00 | 80 | 1010.1 |
| 20260506103020 | 57 | 46 | 0.9 | 3.5 | 0.00 | 0.00 | 0.00 | 82 | 1009.9 |
| 20260506102506 | 57 | 229 | 1.7 | 3.5 | 0.00 | 0.00 | 0.00 | 82 | 1009.9 |
| 20260506102005 | 57 | 111 | 0.9 | 2.6 | 0.00 | 0.00 | 0.00 | 82 | 1009.9 |
| 20260506101511 | 57 | 104 | 0.9 | 7.8 | 0.00 | 0.00 | 0.00 | 81 | 1010.0 |
| 20260506101004 | 57 | 159 | 0.9 | 7.8 | 0.00 | 0.00 | 0.00 | 81 | 1010.1 |
| 20260506100505 | 57 | 173 | 0.0 | 1.7 | 0.00 | 0.00 | 0.00 | 82 | 1010.0 |
| 20260506095007 | 57 | 191 | 0.0 | 1.7 | 0.00 | 0.00 | 0.00 | 81 | 1009.9 |
| 20260506093030 | 57 | 229 | 0.9 | 1.7 | 0.00 | 0.00 | 0.00 | 81 | 1009.8 |
| 20260506092507 | 57 | 113 | 0.0 | 2.6 | 0.00 | 0.00 | 0.00 | 80 | 1009.7 |
| 20260506092011 | 57 | 170 | 0.9 | 2.6 | 0.00 | 0.00 | 0.00 | 80 | 1009.8 |
| 20260506091009 | 57 | 109 | 0.0 | 2.6 | 0.00 | 0.00 | 0.00 | 80 | 1009.9 |
| 20260506090508 | 57 | 188 | 0.9 | 1.7 | 0.00 | 0.00 | 0.00 | 80 | 1009.8 |
| 20260506090015 | 58 | 192 | 0.0 | 7.0 | 0.00 | 0.00 | 0.00 | 79 | 1009.8 |
| 20260506085511 | 58 | 5 | 0.9 | 7.0 | 0.00 | 0.00 | 0.00 | 79 | 1009.8 |
| 20260506085008 | 58 | 178 | 0.9 | 3.5 | 0.00 | 0.00 | 0.00 | 79 | 1009.7 |
| 20260506084519 | 58 | 204 | 0.0 | 3.5 | 0.00 | 0.00 | 0.00 | 79 | 1009.8 |
| 20260506084008 | 58 | 217 | 0.9 | 3.5 | 0.00 | 0.00 | 0.00 | 78 | 1010.0 |
| 20260506083508 | 58 | 278 | 0.0 | 4.3 | 0.00 | 0.00 | 0.00 | 78 | 1010.0 |
| 20260506083029 | 58 | 105 | 0.9 | 4.3 | 0.00 | 0.00 | 0.00 | 78 | 1010.0 |
| 20260506082513 | 58 | 196 | 0.9 | 7.0 | 0.00 | 0.00 | 0.00 | 78 | 1009.9 |
| 20260506082012 | 58 | 133 | 0.0 | 7.0 | 0.00 | 0.00 | 0.00 | 77 | 1009.9 |
| 20260506073511 | 59 | 183 | 1.7 | 4.3 | 0.00 | 0.00 | 0.00 | 76 | 1009.8 |
| 20260506073021 | 59 | 214 | 0.9 | 5.2 | 0.00 | 0.00 | 0.00 | 75 | 1009.7 |
| 20260506072509 | 60 | 107 | 1.7 | 6.1 | 0.00 | 0.00 | 0.00 | 75 | 1009.7 |
| 20260506072008 | 60 | 342 | 2.6 | 6.1 | 0.00 | 0.00 | 0.00 | 75 | 1009.6 |
| 20260506071522 | 60 | 78 | 1.7 | 7.0 | 0.00 | 0.00 | 0.00 | 74 | 1009.6 |
| 20260506071007 | 60 | 154 | 1.7 | 7.0 | 0.00 | 0.00 | 0.00 | 74 | 1009.5 |
| 20260506070504 | 60 | 190 | 0.9 | 5.2 | 0.00 | 0.00 | 0.00 | 74 | 1009.5 |
| 20260506062502 | 61 | 176 | 1.7 | 8.7 | 0.00 | 0.00 | 0.00 | 72 | 1009.4 |
| 20260506062005 | 61 | 258 | 2.6 | 8.7 | 0.00 | 0.00 | 0.00 | 71 | 1009.5 |
| 20260506061505 | 61 | 87 | 2.6 | 8.7 | 0.00 | 0.00 | 0.00 | 71 | 1009.4 |
| 20260506061004 | 62 | 271 | 0.9 | 5.2 | 0.00 | 0.00 | 0.00 | 71 | 1009.4 |
| 20260506060505 | 62 | 85 | 1.7 | 10.4 | 0.00 | 0.00 | 0.00 | 70 | 1009.4 |
| 20260506051004 | 62 | 55 | 1.7 | 7.0 | 0.00 | 0.00 | 0.00 | 67 | 1009.5 |
| 20260506050507 | 62 | 59 | 2.6 | 7.0 | 0.00 | 0.00 | 0.00 | 67 | 1009.5 |
| 20260506045004 | 62 | 256 | 1.7 | 5.2 | 0.00 | 0.00 | 0.00 | 66 | 1009.8 |
| 20260506044512 | 63 | 150 | 1.7 | 9.6 | 0.00 | 0.00 | 0.00 | 66 | 1009.8 |
| 20260506044004 | 63 | 179 | 2.6 | 9.6 | 0.00 | 0.00 | 0.00 | 65 | 1009.8 |
| 20260506043510 | 63 | 221 | 3.5 | 7.8 | 0.00 | 0.00 | 0.00 | 65 | 1009.7 |
| 20260506043015 | 63 | 77 | 1.7 | 7.0 | 0.00 | 0.00 | 0.00 | 65 | 1009.8 |
| 20260506042505 | 63 | 238 | 2.6 | 7.0 | 0.00 | 0.00 | 0.00 | 65 | 1009.9 |
| 20260506042013 | 63 | 177 | 0.9 | 7.0 | 0.00 | 0.00 | 0.00 | 65 | 1009.8 |
| 20260506041519 | 62 | 264 | 0.9 | 7.0 | 0.00 | 0.00 | 0.00 | 66 | 1009.8 |
| 20260506041013 | 62 | 150 | 0.9 | 7.0 | 0.00 | 0.00 | 0.00 | 66 | 1009.8 |
| 20260506040508 | 62 | 13 | 0.9 | 7.0 | 0.00 | 0.00 | 0.00 | 66 | 1009.9 |
| 20260506040023 | 62 | 305 | 0.9 | 7.0 | 0.00 | 0.00 | 0.00 | 66 | 1009.9 |
| 20260506035504 | 62 | 55 | 2.6 | 5.2 | 0.00 | 0.00 | 0.00 | 66 | 1009.9 |
| 20260506035003 | 62 | 87 | 1.7 | 6.1 | 0.00 | 0.00 | 0.00 | 66 | 1009.9 |
| 20260506034506 | 62 | 293 | 1.7 | 6.1 | 0.00 | 0.00 | 0.00 | 67 | 1009.9 |
| 20260506034005 | 61 | 76 | 1.7 | 5.2 | 0.00 | 0.00 | 0.00 | 67 | 1010.0 |
| 20260506033507 | 61 | 350 | 0.9 | 5.2 | 0.00 | 0.00 | 0.00 | 67 | 1009.8 |
| 20260506033010 | 61 | 293 | 1.7 | 5.2 | 0.00 | 0.00 | 0.00 | 67 | 1009.8 |
| 20260506032506 | 61 | 229 | 0.9 | 5.2 | 0.00 | 0.00 | 0.00 | 67 | 1009.8 |
| 20260506032009 | 61 | 219 | 1.7 | 5.2 | 0.00 | 0.00 | 0.00 | 66 | 1009.8 |
| 20260506031532 | 61 | 352 | 0.9 | 6.1 | 0.00 | 0.00 | 0.00 | 66 | 1009.8 |
| 20260506031006 | 61 | 254 | 1.7 | 6.1 | 0.00 | 0.00 | 0.00 | 66 | 1009.8 |
| 20260506030509 | 61 | 246 | 0.9 | 6.1 | 0.00 | 0.00 | 0.00 | 66 | 1009.8 |
| 20260506030018 | 61 | 110 | 1.7 | 6.1 | 0.00 | 0.00 | 0.00 | 66 | 1009.8 |
| 20260506025510 | 61 | 259 | 1.7 | 5.2 | 0.00 | 0.00 | 0.00 | 66 | 1009.8 |
| 20260506025010 | 61 | 184 | 0.9 | 5.2 | 0.00 | 0.00 | 0.00 | 66 | 1009.9 |
| 20260506024529 | 61 | 196 | 1.7 | 5.2 | 0.00 | 0.00 | 0.00 | 65 | 1009.8 |
| 20260506024004 | 62 | 271 | 1.7 | 5.2 | 0.00 | 0.00 | 0.00 | 65 | 1009.9 |
| 20260506023505 | 62 | 325 | 1.7 | 6.1 | 0.00 | 0.00 | 0.00 | 65 | 1009.8 |
| 20260506023011 | 62 | 121 | 1.7 | 6.1 | 0.00 | 0.00 | 0.00 | 64 | 1009.8 |
| 20260506022505 | 62 | 220 | 1.7 | 6.1 | 0.00 | 0.00 | 0.00 | 64 | 1009.8 |
| 20260506022009 | 63 | 278 | 2.6 | 6.1 | 0.00 | 0.00 | 0.00 | 63 | 1009.8 |
| 20260506021516 | 63 | 343 | 1.7 | 9.6 | 0.00 | 0.00 | 0.00 | 63 | 1009.7 |
| 20260506021006 | 63 | 190 | 1.7 | 9.6 | 0.00 | 0.00 | 0.00 | 62 | 1009.8 |
| 20260506020506 | 63 | 309 | 1.7 | 7.0 | 0.00 | 0.00 | 0.00 | 62 | 1009.8 |
| 20260506020018 | 63 | 49 | 1.7 | 7.0 | 0.00 | 0.00 | 0.00 | 62 | 1009.8 |
| 20260506015510 | 63 | 250 | 2.6 | 7.8 | 0.00 | 0.00 | 0.00 | 62 | 1009.8 |
| 20260506015007 | 63 | 240 | 1.7 | 8.7 | 0.00 | 0.00 | 0.00 | 62 | 1009.8 |
| 20260506014523 | 63 | 80 | 1.7 | 8.7 | 0.00 | 0.00 | 0.00 | 61 | 1009.7 |
| 20260506014008 | 63 | 188 | 1.7 | 7.0 | 0.00 | 0.00 | 0.00 | 61 | 1009.6 |
| 20260506013510 | 64 | 15 | 1.7 | 7.0 | 0.00 | 0.00 | 0.00 | 61 | 1009.5 |
| 20260506013025 | 64 | 140 | 0.9 | 6.1 | 0.00 | 0.00 | 0.00 | 61 | 1009.4 |
| 20260506012505 | 64 | 246 | 0.9 | 7.0 | 0.00 | 0.00 | 0.00 | 61 | 1009.3 |
| 20260506012010 | 64 | 230 | 3.5 | 7.8 | 0.00 | 0.00 | 0.00 | 61 | 1009.3 |
| 20260506011517 | 64 | 352 | 0.9 | 7.8 | 0.00 | 0.00 | 0.00 | 60 | 1009.3 |
| 20260506011006 | 65 | 155 | 1.7 | 7.8 | 0.00 | 0.00 | 0.00 | 60 | 1009.1 |
| 20260506010511 | 65 | 106 | 1.7 | 7.0 | 0.00 | 0.00 | 0.00 | 60 | 1009.1 |
| 20260506010043 | 65 | 177 | 0.9 | 6.1 | 0.00 | 0.00 | 0.00 | 59 | 1009.2 |
| 20260506005508 | 65 | 277 | 2.6 | 8.7 | 0.00 | 0.00 | 0.00 | 59 | 1009.1 |
| 20260506005006 | 66 | 268 | 2.6 | 10.4 | 0.00 | 0.00 | 0.00 | 58 | 1009.0 |
| 20260506004522 | 66 | 170 | 1.7 | 10.4 | 0.00 | 0.00 | 0.00 | 58 | 1009.0 |
| 20260506004006 | 66 | 188 | 2.6 | 7.8 | 0.00 | 0.00 | 0.00 | 57 | 1008.9 |
| 20260506003510 | 66 | 277 | 1.7 | 7.8 | 0.00 | 0.00 | 0.00 | 57 | 1008.8 |
| 20260506003024 | 67 | 271 | 1.7 | 7.8 | 0.00 | 0.00 | 0.00 | 56 | 1008.7 |
| 20260506002509 | 67 | 22 | 1.7 | 7.0 | 0.00 | 0.00 | 0.00 | 56 | 1008.7 |
| 20260506002013 | 67 | 310 | 1.7 | 7.8 | 0.00 | 0.00 | 0.00 | 54 | 1008.6 |
| 20260506001530 | 68 | 58 | 0.9 | 7.8 | 0.00 | 0.00 | 0.00 | 54 | 1008.4 |
| 20260506001006 | 68 | 227 | 2.6 | 7.8 | 0.00 | 0.00 | 0.00 | 53 | 1008.3 |